STARLINK-30326 (57639 NORAD) Tracking and Keplerian Element Data

This shows tracking and keplerian element data for the satellite.

Feedback or suggestion? Click here.




ElementValue
Catalog57639
NameSTARLINK-30326
Epoch Orbit279
Epoch Day238.91667824
Epoch Year2023
RAAN95.9182
Inclination43.0002
Eccentricity0.0002149
Argument of Perigee160.6919
Mean Anonmoly266.8797
Mean Motion15.86116213
Decay Rate-0.0089643
L11 57639U 23122H 23238.91667824 -.00896430 00000+0 -38682-2 0 9991
L22 57639 43.0002 95.9182 0002149 160.6919 266.8797 15.86116213 2790



Live tracking and technical data element details for STARLINK-30326 (NORAD 57639). STARLINK-30326 can be tracked NOW for your location showing map with azimuth and elevation plus other details from your city location.







IsCatalogInMostPopularTable: catalog: 57639, numindb: 7
Update: records affected: 1



GetName: 57639 STARLINK-30326

Hit Count: updated at: Tue, 26 Sep 2023 12:09:52 GMT